Temp
16 17 18 18 16 14 15 17 18 19 22 23 24 24 22 24 24 23 22 22 22 21 20 20 20 20 20 21 20 20 20 20 20 20 19 19 20 19 19 19 19 19 19 19 19 18 19 18 18
16 17 17 14 14 14 14 16 18 19 21 20 22 24 24 24 22 22 22 21 23 22 21 21 20 20 20 21 21 20 20 20 20 20 20 20 19 19 19 19 19 19 19 19 18 18 18 18 19
17 17 15 14 13 13 15 18 18 19 20 20 21 23 24 23 22 22 23 21 21 20 20 20 21 20 21 20 21 20 20 20 20 20 20 20 19 19 19 19 19 19 18 18 18 18 18 19 19
17 16 14 14 14 15 16 17 18 19 20 22 22 21 23 23 23 23 22 21 21 20 20 20 21 21 21 21 21 20 20 19 20 20 19 19 19 19 20 19 19 19 19 18 18 17 18 19 19
16 13 13 13 14 15 16 17 18 19 19 20 21 22 22 22 23 23 22 22 21 20 20 20 20 21 20 20 20 20 19 19 19 19 19 19 19 19 20 19 19 19 18 18 17 17 18 19 19
13 12 12 13 14 16 16 17 19 19 19 19 21 21 21 21 21 20 21 21 22 21 20 20 20 20 20 20 19 19 19 19 19 19 19 19 19 19 20 19 19 19 18 18 17 18 19 19 19
12 12 12 14 14 15 17 18 18 18 18 19 21 22 22 19 21 23 22 22 21 20 20 19 19 20 20 20 20 19 19 19 19 19 19 19 19 19 20 19 19 19 18 18 17 18 19 19 19
12 12 13 13 14 14 17 17 18 17 18 18 20 18 20 19 21 22 22 22 22 21 21 20 19 19 19 19 19 19 19 19 19 19 19 19 19 19 19 19 19 18 18 18 18 18 19 19 19
14 12 11 13 15 15 16 15 17 17 17 17 18 17 18 19 22 21 20 20 21 21 21 20 20 19 19 18 18 19 19 19 19 19 19 19 19 19 19 19 18 18 18 18 18 18 19 19 19
12 10 12 14 15 14 15 15 15 15 15 17 17 17 18 19 19 18 19 19 18 19 20 20 19 19 19 19 19 18 19 19 19 19 19 19 19 19 19 18 18 18 18 18 18 18 18 19 19
13 11 13 14 14 15 14 14 15 15 15 16 15 15 16 17 17 18 18 19 19 19 19 21 20 18 20 19 18 18 18 19 18 18 18 18 18 19 18 18 18 18 18 18 17 17 18 19 19
12 13 14 14 14 13 13 14 13 14 14 15 14 15 16 15 15 17 19 19 21 21 20 19 17 18 18 19 18 18 19 19 19 18 17 17 18 18 18 18 18 18 17 17 17 17 18 19 19
12 12 12 12 12 12 13 13 13 13 14 14 14 15 15 15 16 17 19 19 19 18 19 19 19 18 19 17 18 18 18 18 17 18 18 17 17 17 17 18 18 18 17 17 17 18 18 19 19
10 10 11 11 12 12 12 12 13 13 13 14 15 15 14 15 16 17 18 19 18 19 19 19 18 18 19 19 17 18 18 18 18 17 18 17 17 16 16 17 17 17 17 16 17 18 19 19 19
10 10 10 11 11 11 12 11 12 13 13 14 14 15 15 14 16 16 18 18 19 19 19 18 18 18 18 16 17 18 18 19 17 16 18 17 17 17 17 17 17 17 17 17 17 18 18 19 19
9 9 8 10 12 12 11 10 12 13 12 12 13 14 15 14 15 16 18 18 20 18 18 18 18 19 18 17 17 18 18 17 17 15 16 18 18 17 17 16 17 17 17 17 17 18 18 18 19
6 6 7 9 12 12 11 10 12 12 13 12 13 13 14 14 14 16 17 18 19 18 18 17 17 17 20 18 16 16 17 16 16 17 17 18 18 18 17 17 17 18 17 17 17 18 18 18 19
8 7 7 9 10 11 10 10 12 12 12 11 12 12 12 13 13 16 17 17 19 19 19 18 17 18 17 18 15 15 15 16 16 17 17 17 18 18 18 18 18 18 18 17 18 18 18 19 19
8 7 7 9 10 10 10 10 11 12 11 12 10 11 12 12 14 15 16 17 18 17 18 18 17 17 16 14 14 14 14 15 16 16 17 16 17 18 17 18 18 18 18 18 18 19 19 19 19
8 8 8 9 11 10 9 9 10 11 11 12 12 10 10 12 12 13 15 16 15 17 16 17 17 16 15 15 15 15 15 15 15 16 16 17 17 18 18 18 18 18 18 18 19 19 18 19 19
7 6 8 8 10 11 10 10 10 11 11 11 12 11 11 11 13 12 12 13 13 13 14 14 16 17 18 16 15 14 15 15 15 15 15 15 16 17 18 18 18 18 19 19 18 18 18 18 18
8 10 10 10 10 10 10 9 10 10 10 11 11 11 11 12 12 11 11 12 12 12 13 13 14 14 15 16 15 15 15 15 16 16 15 15 16 17 18 18 18 18 18 18 18 18 18 18 17
9 11 10 10 10 9 10 9 9 10 11 11 12 12 12 10 10 11 12 12 12 13 12 14 13 13 14 14 14 14 14 16 15 14 14 15 15 15 16 16 17 18 17 17 18 18 17 18 17
12 10 10 9 10 7 10 8 9 10 11 10 13 12 10 10 9 9 10 11 10 12 12 13 14 13 14 13 14 14 14 14 14 14 14 15 14 14 15 15 15 15 16 16 17 18 18 17 18
10 10 10 8 10 10 10 8 8 11 11 11 11 11 10 9 9 9 9 9 9 10 11 12 12 12 12 12 13 13 14 14 14 14 14 14 14 14 14 14 14 15 15 15 15 16 17 17 16
11 11 12 12 13 12 10 11 11 11 11 11 10 10 9 9 9 8 8 8 8 9 10 10 11 11 11 11 11 12 12 13 14 14 14 14 14 14 14 13 13 14 14 14 14 15 16 16 16
12 12 12 11 12 9 11 11 10 10 10 10 10 9 9 8 8 8 8 7 7 8 8 9 9 10 10 10 11 11 11 13 13 13 13 13 13 13 13 13 14 14 14 14 14 14 15 15 14
12 12 12 11 11 14 12 12 11 9 8 10 9 9 8 8 8 7 7 6 6 6 6 7 7 8 9 10 10 10 10 10 11 11 12 13 13 13 13 13 13 13 13 13 13 13 14 14 14
12 11 11 12 12 12 12 12 9 8 7 8 9 8 8 7 7 7 6 5 5 6 6 7 7 9 9 9 10 10 9 10 10 10 11 11 11 11 12 12 13 13 13 14 14 14 14 14 14
13 12 12 10 13 10 10 12 9 8 8 8 8 8 7 7 6 6 6 5 5 6 6 8 8 8 9 9 10 9 9 10 10 10 10 10 11 11 11 12 12 12 13 13 14 13 13 13 13
Height
792 793 794 795 818 824 825 814 798 796 789 776 774 777 780 770 774 790 759 760 762 766 770 774 777 780 783 784 788 790 793 796 798 801 804 805 806 807 808 811 813 816 817 818 820 821 822 823 824
792 793 795 803 826 830 828 805 800 793 785 780 774 769 769 770 762 763 762 762 762 765 769 771 777 780 783 785 787 791 793 795 798 800 803 806 807 808 809 811 814 816 818 820 821 822 824 825 826
792 793 799 811 825 828 821 798 795 789 784 783 779 764 763 766 762 761 759 762 764 769 772 773 776 780 783 785 787 790 794 796 798 800 802 805 807 809 810 812 814 816 818 820 822 824 825 826 828
792 794 802 814 817 809 802 795 792 790 780 776 776 779 762 756 757 759 760 763 765 768 772 775 777 781 783 785 787 790 793 796 798 800 802 804 808 810 811 813 815 816 819 821 823 825 826 828 830
792 800 813 815 812 805 799 794 793 792 789 781 779 778 769 757 756 757 758 762 764 768 772 774 776 780 783 785 787 790 793 795 798 800 802 804 806 810 812 813 815 817 819 822 824 825 827 829 830
801 803 818 818 810 801 798 794 792 790 785 781 780 775 772 761 760 761 762 764 766 767 769 774 778 779 781 784 786 789 792 794 796 799 801 803 806 809 811 814 816 819 821 822 825 826 827 829 831
806 812 816 810 809 804 796 789 792 790 789 784 773 774 766 763 762 763 764 765 768 771 772 774 777 780 781 782 785 788 791 793 795 798 801 803 806 809 811 815 818 820 822 823 825 827 828 829 832
805 810 810 808 809 808 794 793 791 793 790 781 774 784 777 772 762 762 766 767 770 771 774 775 778 779 781 782 785 787 789 792 795 797 800 803 806 809 811 815 818 820 822 824 825 827 828 830 832
801 817 820 809 804 800 793 797 789 790 791 789 783 784 780 771 767 764 765 767 769 772 771 775 777 780 782 784 784 786 788 790 793 795 799 802 805 808 811 813 817 820 822 823 825 827 828 831 832
808 822 813 802 800 801 797 797 796 794 792 787 784 782 777 774 771 769 765 766 768 769 770 773 777 779 781 784 784 785 786 787 792 794 797 800 804 807 809 813 816 820 822 823 825 826 828 830 832
806 813 805 801 799 797 799 794 793 794 790 787 788 784 781 776 773 770 767 767 765 767 768 772 773 775 778 782 784 784 787 786 790 794 797 800 803 806 809 812 815 818 820 822 825 826 827 828 830
807 803 802 800 798 799 800 795 792 791 786 784 782 782 780 779 775 772 769 767 766 766 766 769 772 774 777 779 782 784 785 787 786 792 797 801 803 804 806 809 812 815 817 819 822 825 826 827 829
805 804 803 801 799 798 795 793 793 783 783 780 779 776 777 777 775 772 769 766 764 764 765 768 770 773 776 777 779 784 785 785 787 785 792 801 803 803 804 807 810 813 816 818 819 822 824 826 827
811 809 806 802 799 797 795 784 790 781 780 777 774 772 771 772 772 770 769 766 764 762 763 764 767 771 774 775 778 781 783 783 784 786 789 795 801 802 795 805 810 811 814 817 817 820 822 823 824
811 811 808 800 795 795 789 782 784 778 778 771 769 766 765 764 765 767 766 765 762 760 761 761 763 766 768 773 775 777 780 781 779 782 784 790 797 799 803 806 808 810 812 815 817 818 820 822 822
816 814 817 796 790 788 791 783 777 774 775 770 765 758 758 757 758 759 761 760 757 758 758 759 759 760 762 770 772 773 774 777 778 777 781 781 793 797 799 802 803 807 809 811 815 815 817 818 819
828 829 819 803 786 787 789 785 773 771 768 765 761 757 752 753 752 751 753 754 754 754 755 757 757 758 753 769 773 772 770 774 777 777 777 775 785 790 794 798 801 805 805 806 811 812 813 815 816
823 826 816 807 792 789 790 779 767 766 765 763 758 754 751 748 747 745 746 749 750 750 751 754 755 756 757 761 770 772 769 770 773 774 773 773 775 782 784 791 795 800 801 805 806 807 810 811 813
818 822 818 796 788 789 782 770 761 757 757 754 755 752 748 745 740 740 741 743 745 747 748 750 752 754 758 761 767 768 766 767 769 770 774 772 775 776 782 783 789 794 798 799 800 803 805 807 810
815 813 802 790 779 783 775 762 756 748 745 742 743 747 747 741 738 736 736 737 740 741 745 747 749 751 756 758 761 763 763 764 766 767 768 770 772 773 776 780 783 787 792 795 796 799 800 803 805
814 820 802 798 776 770 769 757 750 735 732 734 736 738 738 738 734 733 735 736 738 742 746 746 749 750 752 754 758 762 763 762 762 761 764 765 767 768 770 775 780 783 786 788 790 794 795 797 800
805 787 787 783 779 774 773 774 750 743 734 732 734 735 733 732 732 733 734 738 741 743 745 745 747 749 751 754 756 756 754 754 751 757 760 761 762 764 767 769 776 778 780 781 784 787 788 791 793
791 780 780 777 777 780 770 781 760 741 737 736 731 730 732 734 734 735 738 741 742 743 745 745 747 748 749 752 752 752 753 749 747 754 758 759 759 760 763 766 770 774 775 778 779 780 783 784 784
776 782 781 782 777 798 768 782 762 754 749 741 729 730 735 737 739 741 742 743 743 744 746 747 747 748 750 751 749 748 748 747 743 749 752 754 755 753 758 761 765 767 772 774 779 778 778 781 780
784 786 783 801 777 776 764 783 772 748 743 742 733 736 741 743 744 746 747 748 747 747 747 748 748 749 750 750 749 747 745 744 742 746 747 747 748 752 755 757 762 765 769 772 777 777 776 776 776
780 779 773 767 756 758 768 762 753 756 747 743 743 746 747 749 751 751 752 753 751 749 749 751 748 750 750 750 748 744 743 740 740 742 740 743 745 746 748 754 757 761 766 769 772 772 770 769 769
773 772 772 769 761 777 761 757 762 757 757 752 752 752 753 753 754 757 757 757 757 755 754 753 754 753 753 750 747 744 742 742 744 745 744 744 743 747 750 752 755 759 762 765 768 767 764 763 765
774 772 770 775 772 746 751 753 758 764 767 759 759 759 759 760 761 762 763 764 764 762 759 757 757 756 755 752 750 746 747 748 747 747 744 744 746 747 748 750 751 752 755 758 758 759 759 760 759
773 773 772 767 760 758 758 755 774 774 774 768 763 765 767 765 765 767 768 770 770 766 761 762 759 758 757 756 752 753 753 750 752 750 748 748 749 747 746 747 748 745 747 750 751 752 752 753 754
765 766 768 778 758 774 770 763 773 773 773 770 768 769 771 771 772 772 773 771 768 765 764 763 763 762 759 757 754 759 759 757 754 752 751 750 749 746 747 748 746 745 745 745 744 745 747 749 749
Wind_Speed
4 0 2 4 3 4 2 6 3 5 4 2 3 3 9 6 5 4 1 19 20 33 30 26 24 22 22 21 19 19 18 17 16 15 15 16 17 17 16 17 17 16 16 18 19 19 18 17 19
2 3 4 2 4 3 4 5 9 8 4 10 7 6 4 5 3 2 9 21 26 32 32 28 25 22 20 20 19 17 18 18 17 16 15 16 17 17 18 19 18 17 20 19 20 19 18 18 19
3 2 4 4 4 5 5 4 10 6 10 7 6 6 2 3 2 8 5 25 29 30 30 28 25 22 20 18 17 18 17 17 17 18 17 17 18 18 18 20 18 21 22 20 21 18 17 21 19
3 4 4 3 7 5 5 7 4 11 8 2 5 9 4 5 11 9 20 26 28 30 28 26 23 21 19 17 15 15 18 17 17 18 18 18 18 20 18 22 21 22 19 18 19 18 19 20 17
3 2 2 2 4 4 5 4 5 10 6 10 3 7 4 4 9 22 26 28 29 28 28 26 24 22 18 16 14 14 14 18 17 18 19 18 20 21 20 21 22 20 19 18 18 17 17 18 19
3 3 2 4 4 5 6 4 2 4 5 9 7 3 4 5 16 20 24 26 25 28 30 26 22 20 19 16 15 14 13 16 17 18 19 19 20 21 21 22 21 19 15 18 17 17 17 18 19
4 3 3 2 2 3 3 3 5 5 5 6 5 5 2 4 8 16 19 21 20 23 25 26 23 20 18 16 16 15 10 12 15 16 17 18 20 22 22 22 20 17 16 17 16 16 16 19 19
3 3 2 2 2 4 4 6 5 7 7 10 6 6 5 15 9 11 13 16 16 18 19 22 22 20 19 18 16 15 13 9 12 13 14 19 22 23 26 23 20 19 18 18 17 16 16 18 18
2 2 2 3 3 4 6 8 1 4 4 6 4 3 10 28 3 9 9 8 12 16 17 23 23 21 19 18 17 16 13 10 9 13 14 19 24 25 25 24 22 18 19 21 18 16 16 16 16
3 3 7 4 2 3 8 4 10 6 7 3 3 9 23 26 23 13 7 11 10 17 19 23 24 22 20 19 19 17 16 12 8 10 17 21 26 27 25 23 22 21 18 18 17 17 16 15 14
3 4 3 4 6 6 6 13 2 6 5 5 5 9 10 12 19 18 12 8 16 20 22 23 25 23 21 20 19 18 14 14 6 4 16 23 25 27 27 25 25 24 24 22 20 18 17 16 14
2 4 4 4 4 6 6 6 7 8 12 6 8 6 3 8 8 14 20 14 15 13 21 23 24 21 19 21 21 18 17 13 12 5 10 21 28 30 30 28 29 27 26 24 22 19 17 16 14
2 3 6 7 7 8 8 9 8 18 12 10 8 7 6 6 9 18 16 18 13 11 14 23 21 22 23 23 21 18 17 13 10 12 10 22 27 29 31 30 29 30 26 25 24 21 19 17 16
4 4 6 6 7 6 8 17 3 5 12 14 13 12 7 6 6 14 18 19 13 15 17 20 21 21 22 23 19 16 18 14 15 20 16 27 28 25 25 29 28 29 26 25 24 22 20 19 17
5 6 7 8 4 6 6 18 16 14 12 20 18 15 13 7 15 13 21 17 23 18 17 18 20 15 18 24 22 21 21 20 8 22 23 28 28 23 22 30 30 29 30 26 24 22 19 19 18
4 2 4 4 1 7 8 13 12 15 12 18 16 18 14 10 10 19 21 22 22 17 20 20 20 17 11 19 22 23 22 26 12 22 28 25 29 28 30 33 33 34 33 29 28 24 23 20 21
4 3 5 7 4 5 6 7 6 10 14 16 17 16 15 12 10 22 24 23 21 21 20 22 21 19 14 17 22 22 18 23 24 27 28 27 30 34 34 34 33 34 34 32 33 27 26 23 22
3 5 5 8 5 8 15 22 18 10 10 11 12 13 13 14 12 22 28 21 21 23 22 23 20 18 16 19 26 21 19 22 23 27 28 26 39 39 39 34 31 29 31 33 31 28 26 24 21
4 6 10 18 15 16 19 22 21 17 14 15 10 11 11 14 15 20 21 18 19 22 23 23 20 19 19 21 22 22 24 25 30 29 38 36 33 35 38 37 34 33 35 35 32 29 26 24 22
8 9 18 15 13 3 13 22 19 18 15 17 14 10 10 12 8 6 13 14 17 19 26 26 23 20 22 22 23 18 23 29 31 29 32 37 39 36 36 34 35 36 37 34 32 30 26 26 22
4 5 11 13 16 13 15 13 6 10 12 18 13 9 7 10 13 8 8 8 6 9 13 16 19 18 20 19 18 17 15 12 22 19 24 31 39 37 35 36 37 37 35 35 34 34 30 26 26
6 8 15 14 9 4 3 7 7 7 6 4 7 8 10 4 2 3 5 9 9 8 6 5 3 6 16 19 21 25 23 18 17 25 25 27 30 35 34 34 38 38 37 36 38 37 35 30 24
9 1 11 10 8 3 2 2 7 7 8 9 6 6 3 6 7 9 7 5 9 7 8 6 4 1 3 14 23 22 22 18 16 20 26 27 26 34 32 33 34 37 33 32 33 37 36 36 27
9 8 6 1 2 2 3 4 5 4 9 11 6 5 7 8 8 8 12 11 10 5 5 4 4 3 3 3 6 18 21 18 16 20 20 22 18 18 34 34 31 27 25 24 30 32 31 29 21
3 4 4 4 1 4 4 1 6 11 13 6 4 9 8 8 10 8 9 8 10 7 4 2 4 7 5 3 2 1 8 8 8 25 24 17 15 23 21 30 30 27 23 21 26 25 23 23 21
4 2 2 4 3 3 2 3 3 9 11 12 13 11 11 10 9 10 10 12 13 16 12 9 12 11 10 8 8 10 9 3 3 11 17 16 15 9 17 13 11 19 20 18 24 28 27 23 22
2 3 3 3 4 1 2 3 4 10 12 11 10 11 10 10 10 10 12 16 15 16 17 17 15 15 13 14 14 15 18 12 5 4 5 5 5 12 10 11 14 23 28 27 27 27 27 22 25
5 3 2 1 4 3 1 3 4 10 9 7 10 9 9 9 10 9 10 16 16 17 19 20 19 19 17 17 17 18 17 14 12 8 6 4 6 11 13 19 23 27 28 29 26 23 24 22 22
2 4 3 3 3 2 3 2 5 4 4 5 9 10 8 9 9 8 11 9 10 13 19 17 20 19 18 16 18 17 15 15 11 11 10 9 6 6 8 9 10 14 21 27 25 24 26 28 27
3 4 2 2 5 2 2 3 5 4 3 3 8 8 10 10 8 6 6 5 11 13 17 21 19 19 17 16 17 15 13 12 14 13 12 10 10 8 7 8 9 11 14 21 29 29 29 31 30
Wind_Direction
317 331 14 52 81 68 238 243 283 303 270 201 355 318 260 243 234 233 205 167 168 165 168 168 167 166 165 162 164 167 168 167 167 163 161 157 157 156 150 149 146 147 147 139 132 127 125 129 121
5 96 71 85 107 153 258 245 265 248 307 322 309 286 260 226 152 177 134 191 171 171 171 169 168 168 166 165 167 170 172 175 174 172 170 168 166 162 155 153 151 153 143 139 132 134 129 133 126
101 58 98 136 164 183 212 227 242 316 315 300 297 236 227 201 82 169 192 168 165 169 173 170 168 168 166 164 168 175 179 181 184 181 178 178 173 166 160 156 159 150 147 151 142 137 140 138 131
56 31 32 133 213 240 220 287 345 319 313 355 338 317 316 207 162 181 163 168 169 170 174 172 169 171 170 168 171 178 183 185 193 188 186 182 181 171 175 162 159 158 161 158 151 142 145 141 140
83 70 110 237 233 268 279 250 279 291 291 289 356 280 280 280 186 164 172 171 171 171 175 174 172 173 173 170 168 173 182 188 193 196 192 188 185 179 175 169 166 161 163 165 156 150 148 148 148
47 86 101 239 248 273 289 312 307 255 272 300 313 277 261 276 144 153 166 174 175 172 175 174 177 173 172 172 169 172 180 195 195 199 200 195 190 182 178 167 162 158 160 162 157 156 154 154 152
104 83 215 236 247 304 263 355 298 285 313 304 281 280 277 320 164 164 168 172 170 173 175 174 175 177 174 174 174 171 172 186 194 202 205 200 191 184 174 169 167 173 170 168 166 161 158 159 158
96 87 251 238 189 274 270 347 318 14 300 317 336 345 360 332 174 176 180 177 177 183 186 181 178 178 177 171 172 172 171 167 191 198 205 199 190 180 169 172 179 182 180 180 177 165 161 162 165
72 67 252 236 180 253 335 353 76 300 335 317 17 22 314 356 215 144 145 161 176 190 181 182 182 182 178 175 169 169 169 174 183 192 198 196 188 178 172 177 181 186 188 182 183 173 166 166 168
115 155 220 225 307 297 305 307 318 346 326 252 333 345 348 347 354 328 186 171 177 190 191 193 187 182 180 183 178 172 171 162 190 196 196 195 183 179 178 187 182 181 186 188 188 183 175 174 174
177 206 237 288 300 298 304 303 299 292 274 296 296 310 331 339 339 338 306 251 214 200 195 210 203 183 176 187 185 176 169 156 150 188 201 197 185 182 182 188 187 188 192 192 195 191 186 180 177
267 251 261 266 307 321 309 292 289 239 259 275 280 264 290 320 316 318 319 285 256 226 201 202 201 193 194 189 184 182 180 160 137 157 211 198 190 188 189 193 190 194 196 199 196 196 191 187 183
202 327 331 313 293 289 291 265 259 272 279 280 282 287 282 292 295 307 301 300 258 243 218 215 212 213 197 181 175 181 189 200 215 221 235 220 204 197 191 195 195 198 201 202 197 198 198 198 196
323 310 290 287 289 274 276 281 272 292 312 298 292 287 262 252 266 299 302 296 246 248 229 218 215 219 221 216 209 215 217 230 253 242 230 215 214 217 199 198 202 202 207 210 203 203 204 205 205
316 313 311 258 250 262 256 275 265 281 271 278 275 277 278 245 262 239 275 284 275 237 231 210 198 202 225 226 219 228 239 237 262 225 217 209 214 203 205 207 210 208 210 215 213 210 207 208 213
326 13 324 293 311 255 162 268 268 269 274 275 277 279 275 271 254 269 270 271 283 248 215 204 196 196 200 226 225 222 225 220 249 214 203 196 226 226 206 211 215 217 216 216 217 210 212 218 217
344 275 266 299 228 263 177 281 289 292 274 260 262 263 271 270 267 272 273 270 267 234 209 207 206 201 181 228 232 222 216 221 226 205 206 192 216 225 219 213 216 223 219 215 215 216 218 217 218
302 297 263 269 281 308 285 280 273 264 267 256 256 259 264 268 255 264 270 267 256 236 224 218 210 199 196 202 220 223 214 213 211 213 210 216 210 221 217 215 216 219 211 215 211 210 211 218 219
241 253 265 272 269 285 266 270 272 270 259 257 244 256 257 260 257 262 270 249 240 217 211 210 206 208 207 204 212 217 216 223 222 222 225 220 215 214 214 209 213 220 216 211 206 212 214 216 220
247 274 279 280 269 264 285 281 281 267 250 238 235 244 247 259 272 215 218 220 207 203 206 201 207 206 208 214 211 212 221 224 225 223 233 234 221 216 213 219 210 208 208 214 216 211 213 220 212
245 222 266 260 299 263 275 286 275 277 248 238 239 238 251 243 258 193 182 147 157 160 199 210 213 215 226 222 228 225 208 219 211 220 241 241 230 219 216 219 217 213 216 217 215 214 214 209 210
290 221 247 267 293 294 103 297 305 312 326 203 220 225 245 254 161 121 112 109 102 76 91 114 99 239 245 236 235 242 221 217 222 237 244 254 240 226 217 217 220 218 215 216 218 216 216 215 202
238 208 289 291 277 332 193 254 274 344 1 350 259 249 108 76 80 77 65 129 112 103 80 68 53 49 19 252 243 244 239 235 225 232 237 248 244 231 228 224 224 221 213 221 221 218 219 218 207
261 303 283 283 307 321 253 149 300 7 321 312 326 104 98 80 74 67 58 65 70 100 102 106 99 47 288 288 266 237 235 232 208 218 222 226 245 225 226 228 231 225 233 237 248 233 231 226 234
145 281 310 345 288 251 344 51 256 333 348 332 209 127 93 80 75 66 56 45 56 71 107 84 93 68 37 10 264 357 215 210 233 234 215 202 220 219 210 219 226 222 219 231 247 246 241 243 249
294 259 288 304 313 344 78 257 358 346 357 40 64 73 78 69 67 57 49 37 41 59 75 84 74 62 48 33 19 31 357 258 246 212 194 200 209 210 192 224 216 207 213 237 249 248 249 245 255
340 283 215 261 237 51 277 294 248 4 10 37 49 66 67 66 62 53 47 35 29 50 48 59 67 66 55 44 30 27 16 42 21 272 193 210 235 233 245 236 249 256 244 243 255 248 241 235 235
204 335 304 282 332 315 100 313 344 345 344 26 56 48 70 78 66 50 60 40 25 45 56 63 60 55 53 50 43 35 24 28 25 9 15 1 281 260 253 267 273 266 259 255 252 251 245 244 247
316 293 235 258 198 283 325 354 351 338 344 19 68 64 46 50 62 55 55 54 49 57 64 60 60 56 54 52 51 41 33 30 27 28 22 11 344 314 291 278 276 271 261 253 242 250 254 253 251
217 257 242 156 309 36 118 4 8 15 51 60 79 81 69 65 66 62 71 69 53 49 54 51 49 45 40 38 47 42 38 39 32 24 18 11 1 352 329 294 280 267 260 256 253 244 240 236 234